Orbital Elements at Epoch 2459200.5 (2020-Dec-17.0) TDB
Reference: JPL 20 (heliocentric ecliptic J2000)
Element | Value | Uncertainty (1-sigma) | Units |
e | .192755251377593 | 4.0686e-08 | |
a | 2.257180362090912 | 1.0834e-08 | au |
q | 1.822096993991512 | 9.1805e-08 | au |
i | 4.660321789604796 | 4.3254e-06 | deg |
node | 46.83049729111691 | 5.5394e-05 | deg |
peri | 271.3733740996278 | 5.6556e-05 | deg |
M | 240.9679059961514 | 1.0713e-05 | deg |
tp | 2459610.052323925811 (2022-Jan-30.55232393) | 3.7444e-05 | TDB |
period | 1238.647760061458 3.39 | 8.9182e-06 2.442e-08 | d yr |
n | .2906395277234731 | 2.0926e-09 | deg/d |
Q | 2.692263730190312 | 1.2923e-08 | au |
|
| | Orbit Determination Parameters
Additional Information
|